Regional Weather Roundup
Issued by NWS

Home | Current Version | Previous Version | Graphics & Text | Print | Product List | Glossary Off
Versions: 1 2 3 4 5 6 7 8 9 10 11 12 13 14 15 16 17 18 19 20 21 22 23 24 25 26 27 28 29 30 31 32 33 34 35 36 37 38 39 40 41 42 43 44 45 46 47 48 49 50

000
ASUS43 KTOP 160659
RWRKS

WEATHER ROUNDUP FOR KANSAS
NATIONAL WEATHER SERVICE GOODLAND KS
100 AM CST TUE JAN 16 2018

NOTE:  "FAIR" INDICATES FEW OR NO CLOUDS BELOW 12,000 FEET WITH NO
SIGNIFICANT WEATHER AND/OR OBSTRUCTIONS TO VISIBILITY.

KSZ001>006-013>018-027>032-041>047-160800-
NORTHWEST KANSAS

CITY           SKY/WX    TMP DP  RH WIND       PRES   REMARKS
GOODLAND       CLEAR      0  -6  76 NW13      30.63S WCI -18
HAYS           CLEAR      3  -5  69 NW14      30.73F WCI -15
HILL CITY      CLEAR      2  -6  69 NW7       30.73S
RUSSELL        CLEAR    N/A N/A N/A NW8       30.72S
$$

KSZ061>065-074>080-084>089-160800-
SOUTHWEST KANSAS

CITY           SKY/WX    TMP DP  RH WIND       PRES   REMARKS
DODGE CITY     CLEAR      0  -7  72 NW10      30.69F WCI -16
GARDEN CITY    CLOUDY     1  -6  72 NW12      30.68F WCI -16
GREAT BEND     CLEAR     -1  -7  75 NW7       30.74S
LIBERAL        CLOUDY    -1  -6  79 NW8       30.70F
$$

KSZ066>073-081>083-090>101-160800-
SOUTHEAST KANSAS

CITY           SKY/WX    TMP DP  RH WIND       PRES   REMARKS
CHANUTE        CLOUDY     6  -4  63 N15       30.73S WCI -12
COFFEYVILLE    CLOUDY     7   0  73 NW13      30.75S WCI  -9
HUTCHINSON     CLEAR      3  -4  72 NW8       30.73F
MEDICINE LODGE   N/A      2  -3  80 NW7       30.76F
NEWTON         CLEAR      1  -4  79 N13       30.72F WCI -17
PARSONS        CLOUDY     8   1  73 N13       30.74S WCI  -8
WICHITA INTL   PTCLDY     7  -2  66 N9        30.75S
WICHITA JABRA  CLOUDY     4  -1  80 N9        30.73F
WICHITA MCCONL CLEAR      6  -4  65 N14       30.73F WCI -12
WINFIELD       CLEAR      5  -1  76 N8        30.77S
$$

KSZ007>012-019>026-033>040-048>060-102>105-160800-
NORTHEAST KANSAS

CITY           SKY/WX    TMP DP  RH WIND       PRES   REMARKS
CONCORDIA      PTCLDY     2  -6  69 NW15      30.72S WCI -17
EMPORIA        CLEAR      2  -7  66 N18G25    30.72S WCI -19
LAWRENCE       CLEAR     -1  -9  68 NW9       30.73S
MANHATTAN      CLEAR      2  -7  66 VRB3      30.75F
OLATHE IND     CLEAR     -1  -9  68 NW12      30.70S WCI -18
OLATHE EXE     CLEAR     -1 -10  65 N12       30.68F WCI -18
SALINA         PTCLDY     5  -4  66 NW12      30.77S WCI -11
TOPEKA BILLARD CLEAR      1  -8  66 NW8       30.74S
TOPEKA FORBES  CLEAR      1  -9  62 NW9       30.71S
$$




USA.gov is the U.S. government's official web portal to all federal, state and local government web resources and services.